Station CLSM4 - St. Clair Shores, MI Image indicating link to RSS feed of recent meteorological observations for station CLSM4


Conditions at CLSM4 as of
(9:00 pm EDT on 05/23/2024)
0100 GMT on 05/24/2024:
     

Click on the graph icon in the table below to see a time series plot of the last five days of that observation.

5-day plot - Wind Direction Wind Direction (WDIR):WNW ( 300 deg true )
5-day plot - Wind Speed Wind Speed (WSPD): 5.1 kts
5-day plot - Wind Gust Wind Gust (GST): 6.0 kts
5-day plot - Atmospheric Pressure Atmospheric Pressure (PRES):29.90 in
5-day plot - Pressure Tendency Pressure Tendency (PTDY):+0.01 in ( Rising )
5-day plot - Air Temperature Air Temperature (ATMP): 75.9 °F
5-day plot - Wind Speed at 10 Meters Wind Speed at 10 meters (WSPD10M): 5.8 kts
5-day plot - Wind Speed at 20 Meters Wind Speed at 20 meters (WSPD20M): 5.8 kts
5-day plot -  Wind Speed, Wind Gust and Atmospheric Pressure Combined plot of Wind Speed, Gust, and Air Pressure
Previous observations
TIME
(EDT)
5-day plot - Wind Direction
WDIR
 
5-day plot - Wind Speed
WSPD
kts
5-day plot - Wind Gust
GST
kts
5-day plot - Wave Height
WVHT
ft
5-day plot - Dominant Wave Period
DPD
sec
5-day plot - Average Wave Period
APD
sec
5-day plot - Mean Wave Direction
MWD
 
5-day plot - Atmospheric Pressure
PRES
in
5-day plot - Pressure Tendency
PTDY
in
5-day plot - Air Temperature
ATMP
°F
5-day plot - Water Temperature
WTMP
°F
5-day plot - Dew Point
DEWP
°F
5-day plot - Salinity
SAL
psu
5-day plot - Visibility
VIS
nmi
5-day plot - Tide (above MLLW)
TIDE
ft
2024-05-23 08:50 pmWNW 4.1 8.0----29.89- 76.3-----
2024-05-23 08:40 pm W 5.1 8.9----29.89- 76.6-----
2024-05-23 08:30 pm W 8.0 11.1----29.89- 77.4-----
2024-05-23 08:20 pmWNW 6.0 12.0----29.89- 77.5-----
2024-05-23 08:10 pmWNW 7.0 9.9----29.89- 77.9-----
2024-05-23 08:00 pmWNW 6.0 11.1----29.89-0.01 78.3-----
2024-05-23 07:50 pmWNW 8.9 13.0----29.88- 78.4-----
2024-05-23 07:40 pmWNW 8.0 15.0----29.88- 78.3-----
2024-05-23 07:30 pm W 7.0 12.0----29.88- 78.8-----
2024-05-23 07:20 pmWSW 7.0 12.0----29.88- 78.6-----
2024-05-23 07:10 pm W 6.0 14.0----29.88- 78.8-----
2024-05-23 07:00 pmWSW 9.9 15.9----29.88-0.03 78.8-----
2024-05-23 06:50 pm W 6.0 9.9----29.88- 79.2-----
2024-05-23 06:40 pm W 11.1 15.9----29.88- 79.2-----
2024-05-23 06:30 pm W 11.1 15.0----29.88- 79.2-----
2024-05-23 06:20 pmWSW 7.0 14.0----29.88- 79.0-----
2024-05-23 06:10 pmWSW 6.0 14.0----29.89- 79.0-----
2024-05-23 06:00 pm W 9.9 18.1----29.89-0.01 79.2-----
2024-05-23 05:50 pmWNW 11.1 14.0----29.89- 79.9-----
2024-05-23 05:40 pm W 12.0 17.1----29.90- 79.2-----
2024-05-23 05:30 pm W 5.1 14.0----29.90- 79.0-----
2024-05-23 05:20 pm W 9.9 17.1----29.90- 79.2-----
2024-05-23 05:10 pmWNW 13.0 17.1----29.89- 79.3-----
2024-05-23 05:00 pm W 9.9 15.9----29.90-0.03 79.2-----
2024-05-23 04:50 pmWSW 8.0 18.1----29.90- 78.6-----
2024-05-23 04:40 pm SW 13.0 18.1----29.90- 79.0-----
2024-05-23 04:30 pm SW 13.0 17.1----29.91- 78.4-----
2024-05-23 04:20 pm W 9.9 19.0----29.91- 78.4-----
2024-05-23 04:10 pmWSW 13.0 22.0----29.91- 78.4-----
2024-05-23 04:00 pmWSW 12.0 19.0----29.91-0.02 78.4-----
2024-05-23 03:50 pm W 8.9 19.0----29.91- 78.3-----
2024-05-23 03:40 pm W 9.9 15.9----29.91- 78.1-----
2024-05-23 03:30 pmWSW 13.0 18.1----29.90- 78.3-----
2024-05-23 03:20 pmWSW 12.0 17.1----29.90- 77.5-----
2024-05-23 03:10 pm SW 11.1 20.0----29.90- 77.7-----
2024-05-23 03:00 pm W 9.9 17.1----29.90-0.04 77.7-----
2024-05-23 02:50 pm W 8.0 15.0----29.91- 77.7-----
2024-05-23 02:40 pm W 11.1 18.1----29.91- 77.4-----
2024-05-23 02:30 pmWSW 9.9 19.0----29.92- 77.2-----
2024-05-23 02:20 pmWSW 7.0 18.1----29.91- 76.8-----
2024-05-23 02:10 pmWSW 12.0 18.1----29.92- 77.4-----
2024-05-23 02:00 pm SW 9.9 19.0----29.93-0.03 76.6-----
2024-05-23 01:50 pmWSW 8.9 15.0----29.93- 76.8-----
2024-05-23 01:40 pmWSW 8.9 17.1----29.93- 76.1-----
2024-05-23 01:30 pmWSW 9.9 15.9----29.93- 75.9-----
2024-05-23 01:20 pmWSW 8.9 12.0----29.93- 76.5-----
2024-05-23 01:10 pmWSW 5.1 18.1----29.93- 75.7-----
2024-05-23 01:00 pmWSW 12.0 18.1----29.93-0.03 75.4-----
2024-05-23 12:50 pmSSW 8.0 19.0----29.93- 74.8-----
2024-05-23 12:40 pmWSW 8.0 15.0----29.93- 74.8-----
2024-05-23 12:30 pmWSW 5.1 12.0----29.94- 74.7-----
2024-05-23 12:20 pmWSW 7.0 18.1----29.94- 74.5-----
2024-05-23 12:10 pm W 6.0 15.0----29.94- 74.5-----
2024-05-23 12:00 pm W 8.0 14.0----29.94-0.03 73.8-----
2024-05-23 11:50 am SW 8.9 15.0----29.94- 73.9-----
2024-05-23 11:40 am W 7.0 12.0----29.95- 73.0-----
2024-05-23 11:30 am W 9.9 17.1----29.95- 73.0-----
2024-05-23 11:20 am SW 8.9 14.0----29.95- 73.2-----
2024-05-23 11:10 am W 8.9 13.0----29.96- 72.7-----
2024-05-23 11:00 am W 8.0 14.0----29.96+0.00 72.9-----
2024-05-23 10:50 am W 8.0 17.1----29.96- 72.3-----
2024-05-23 10:40 am W 8.9 13.0----29.96- 72.3-----
2024-05-23 10:30 amWSW 8.0 12.0----29.96- 71.4-----
2024-05-23 10:20 amWSW 6.0 9.9----29.96- 72.0-----
2024-05-23 10:10 am W 7.0 8.9----29.96- 71.4-----
2024-05-23 10:00 am W 6.0 8.9----29.96+0.01 70.9-----
2024-05-23 09:50 am W 5.1 8.9----29.96- 70.0-----
2024-05-23 09:40 am W 5.1 8.0----29.96- 70.0-----
2024-05-23 09:30 amWSW 5.1 7.0----29.97- 69.1-----
2024-05-23 09:20 am W 5.1 9.9----29.97- 68.5-----
2024-05-23 09:10 am W 8.9 9.9----29.97- 68.2-----
2024-05-23 09:00 am W 7.0 11.1----29.97+0.03 68.2-----
2024-05-23 08:50 am W 8.0 11.1----29.97- 67.5-----
2024-05-23 08:40 amWNW 7.0 12.0----29.97- 67.8-----
2024-05-23 08:30 am W 8.9 12.0----29.97- 66.9-----
2024-05-23 08:20 am W 9.9 13.0----29.96- 66.7-----
2024-05-23 08:10 am W 8.0 12.0----29.96- 66.9-----
2024-05-23 08:00 am W 5.1 8.0----29.96+0.03 66.6-----
2024-05-23 07:50 amWSW 6.0 8.9----29.96- 65.7-----
2024-05-23 07:40 amWSW 6.0 7.0----29.96- 65.3-----
2024-05-23 07:30 amWSW 6.0 8.0----29.96- 64.8-----
2024-05-23 07:20 am W 4.1 6.0----29.95- 64.4-----
2024-05-23 07:10 amWSW 4.1 6.0----29.95- 64.0-----
2024-05-23 07:00 amWSW 2.9 5.1----29.95+0.03 63.9-----
2024-05-23 06:50 amWSW 2.9 6.0----29.95- 63.0-----
2024-05-23 06:40 am SW 2.9 7.0----29.95- 63.0-----
2024-05-23 06:30 am SW 5.1 8.0----29.95- 63.0-----
2024-05-23 06:20 am SW 5.1 6.0----29.94- 62.8-----
2024-05-23 06:10 am SW 5.1 7.0----29.94- 62.8-----
2024-05-23 06:00 amSSW 4.1 6.0----29.94+0.04 63.3-----
2024-05-23 05:50 am SW 4.1 6.0----29.94- 63.5-----
2024-05-23 05:40 amWSW 4.1 6.0----29.93- 63.9-----
2024-05-23 05:30 amWSW 4.1 6.0----29.93- 63.9-----
2024-05-23 05:20 amWSW 4.1 6.0----29.93- 64.0-----
2024-05-23 05:10 amWSW 2.9 6.0----29.93- 64.4-----
2024-05-23 05:00 amWSW 4.1 6.0----29.93+0.04 64.8-----
2024-05-23 04:50 amWSW 2.9 6.0----29.93- 65.1-----
2024-05-23 04:40 am W 4.1 7.0----29.92- 65.5-----
2024-05-23 04:30 am W 4.1 6.0----29.92- 65.7-----
2024-05-23 04:20 am W 4.1 7.0----29.92- 66.0-----
2024-05-23 04:10 am W 7.0 9.9----29.92- 66.2-----
2024-05-23 04:00 am W 6.0 11.1----29.92+0.03 66.4-----
2024-05-23 03:50 am W 8.9 12.0----29.91- 66.0-----
2024-05-23 03:40 am W 7.0 13.0----29.91- 66.2-----
2024-05-23 03:30 am W 9.9 13.0----29.90- 66.2-----
2024-05-23 03:20 amWNW 8.0 12.0----29.90- 66.2-----
2024-05-23 03:10 am W 6.0 9.9----29.90- 66.2-----
2024-05-23 03:00 am W 4.1 8.0----29.90+0.01 66.4-----
2024-05-23 02:50 am W 5.1 7.0----29.90- 66.4-----
2024-05-23 02:40 am W 4.1 8.0----29.90- 66.6-----
2024-05-23 02:30 am W 4.1 8.0----29.89- 66.9-----
2024-05-23 02:20 am W 5.1 7.0----29.89- 67.3-----
2024-05-23 02:10 am W 6.0 8.9----29.89- 67.6-----
2024-05-23 02:00 amWNW 7.0 11.1----29.89+0.04 68.0-----
2024-05-23 01:50 am W 6.0 8.9----29.89- 68.2-----
2024-05-23 01:40 am W 5.1 8.9----29.89- 68.4-----
2024-05-23 01:30 am W 6.0 12.0----29.89- 68.9-----
2024-05-23 01:20 am W 8.0 11.1----29.89- 68.9-----
2024-05-23 01:10 amWNW 6.0 11.1----29.90- 69.3-----
2024-05-23 01:00 am W 8.9 13.0----29.89+0.09 69.4-----
2024-05-23 12:50 am W 8.0 11.1----29.89- 69.8-----
2024-05-23 12:40 am W 8.0 11.1----29.89- 70.0-----
2024-05-23 12:30 am W 8.0 15.0----29.90- 70.2-----
2024-05-23 12:20 am W 8.9 14.0----29.90- 70.3-----
2024-05-23 12:10 am W 9.9 17.1----29.89- 70.5-----
2024-05-23 12:00 amWNW 11.1 17.1----29.89+0.13 70.7-----
2024-05-22 11:50 pm W 8.9 13.0----29.89- 70.9-----
2024-05-22 11:40 pm W 4.1 11.1----29.88- 71.1-----
2024-05-22 11:30 pm W 8.9 15.0----29.87- 71.1-----
2024-05-22 11:20 pm W 9.9 24.1----29.86- 71.2-----
2024-05-22 11:10 pm W 15.0 24.1----29.86- 71.8-----
2024-05-22 11:00 pmWNW 11.1 20.0----29.85+0.11 72.5-----
2024-05-22 10:50 pmWNW 11.1 24.1----29.85- 73.0-----
2024-05-22 10:40 pmWNW 11.1 20.0----29.84- 73.6-----
2024-05-22 10:30 pm W 12.0 15.9----29.83- 73.9-----
2024-05-22 10:20 pmWNW 9.9 19.0----29.82- 74.3-----
2024-05-22 10:10 pmWNW 12.0 19.0----29.80- 74.7-----
2024-05-22 10:00 pmWNW 12.0 22.9----29.80- 75.0-----
2024-05-22 09:50 pmWNW 12.0 20.0----29.79- 76.5-----
2024-05-22 09:40 pm W 11.1 18.1----29.78- 77.5-----
2024-05-22 09:30 pm W 11.1 13.0----29.77- 77.9-----
2024-05-22 09:20 pm W 8.9 17.1----29.76- 78.3-----
2024-05-22 09:10 pm W 14.0 17.1----29.75- 78.6-----
2024-05-22 09:00 pm W 13.0 17.1----29.76+0.06 79.0-----
2024-05-22 08:50 pm W 9.9 17.1----29.75- 79.3-----